Location: Eckley Miners' Village
(40.9930°N, 75.8630°W)
Time: 00:44:20
(UTC-04:00)

Vanguard 1 Rocket - Pass Details

Date: 14 March 2026
Orbit: 654 x 4213 km, 34.3° (Epoch: 18 April)

Event Time Altitude Azimuth Distance (km) Brightness Sun altitude
Rises 07:42:49 0° 230° (SW) 3,804 10.2 4.1°
Reaches altitude 10° 07:46:20 10° 217° (SW) 2,484 9.4 4.7°
Maximum altitude 07:50:32 23° 164° (SSE) 1,475 8.9 5.5°
Drops below altitude 10° 07:54:05 10° 111° (ESE) 2,056 11.4 6.2°
Sets 07:56:41 0° 95° (E) 2,986 12.7 6.7°
